Regional Weather Roundup
Issued by NWS San Diego, CA

Home | Current Version | Previous Version | Text Only | Print | Product List | Glossary On
Versions: 1 2 3 4 5 6 7 8 9 10 11 12 13 14 15 16 17 18 19 20 21 22 23 24 25 26 27 28 29 30 31 32 33 34 35 36 37 38 39 40 41 42 43 44 45 46 47 48 49 50
000
ASUS46 KSGX 281211
RWRSGX

SAN DIEGO HOURLY WEATHER ROUNDUP
NATIONAL WEATHER SERVICE SAN DIEGO CA
500 AM PDT WED JUN 28 2017

NOTE: "FAIR" INDICATES FEW OR NO CLOUDS BELOW 12,000 FEET WITH NO
SIGNIFICANT WEATHER AND/OR OBSTRUCTIONS TO VISIBILITY.

CAZ042-043-060-061-PZZ750-775-281300-

GREATER SAN DIEGO AREA

CITY           SKY/WX    TMP DP  RH WIND       PRES   REMARKS
SAN DIEGO AP   CLOUDY    63  59  87 W3        29.89R
NATIONAL CITY    N/A     64  60  88 SW2       29.88S
CHULA VISTA      N/A     62  60  93 CALM      29.80R
IMPERIAL BEACH CLOUDY    62  58  86 CALM      29.88S
BROWN FIELD    CLOUDY    61  60  97 CALM      29.87S
MIRAMAR MCAS   CLOUDY    65  58  78 CALM      29.87S
MONTGOMERY FLD CLOUDY    63  59  87 E3        29.87S
GILLESPIE FLD  CLOUDY    63  59  88 CALM      29.87S

$$

NORTH SAN DIEGO COUNTY

CITY           SKY/WX    TMP DP  RH WIND       PRES   REMARKS
CAMP PENDLETON CLOUDY    61  60  97 E5        29.86S FOG
OCEANSIDE AP   CLOUDY    64  60  87 S6        29.86S
OCEANSIDE HBR    N/A     63  60  91 E1        29.88S
VISTA            N/A     62  57  82 CALM      29.83S
CARLSBAD       CLOUDY    61  60  97 CALM      29.86S
DEL MAR          N/A     61  59  93 CALM      29.88S
LA JOLLA SCRIP   N/A     60  59  95 S2        29.86S
FALLBROOK        N/A     60  60 100 CALM      29.87S
ESCONDIDO        N/A     61  58  89 CALM      29.86S
SAN MARCOS       N/A     60  56  87 CALM      29.86S
POWAY            N/A     58  55  89 CALM      29.87S

$$

EAST SAN DIEGO COUNTY

CITY           SKY/WX    TMP DP  RH WIND       PRES   REMARKS
RAMONA         CLEAR     51  48  89 CALM      29.88
SANTEE LAKES     N/A     60  57  90 CALM      29.85S
LA MESA          N/A     60  58  94 CALM      29.79R
JAMUL            N/A     58  56  93 CALM      29.84S
DESCANSO N       N/A     53  20  27 NE6       29.77S
CAMPO            N/A     47  27  45 NE7       29.91S

$$

ORANGE COUNTY AND THE LOS ANGELES BASIN

CITY           SKY/WX    TMP DP  RH WIND       PRES   REMARKS
JOHN WAYNE AP  CLOUDY    62  59  90 SE3       29.86S
LAKE FOREST FR   N/A     57  53  86 CALM      29.74R
HUNTINGTON BCH   N/A     61  60  95 CALM      29.87S
LOS ALAMITOS   FAIR      62  58  88 S3        29.86R
FULLERTON      CLOUDY    63  60  90 S3        29.85S
LONG BEACH     CLEAR     62  58  86 SE5       29.86R
L.A. AP        PTCLDY    62  59  90 W6        29.86S
L.A. DOWNTOWN  CLEAR     63  59  87 CALM      29.85S

$$

THE INLAND EMPIRE

CITY           SKY/WX    TMP DP  RH WIND       PRES   REMARKS
CORONA         CLEAR     59  56  89 VRB3      29.87S
CHINO          CLEAR     60  55  83 CALM      29.88R
ONTARIO        CLEAR     62  51  67 CALM      29.86S
SAN BERNARDINO FAIR      64  37  36 CALM      29.88R
RIVERSIDE AP   CLEAR     63  52  67 CALM      29.87R
MORENO VALLEY    N/A     61  47  60 CALM        N/A
MARCH ARB      CLEAR     53  37  56 CALM      29.88R
HORSETHIEF CYN   N/A     61  35  38 W2        29.83R
PERRIS           N/A     63  45  52 SE1       29.87S
HEMET EAST       N/A     63  23  22 CALM      29.86R
FRENCH VALLEY  FAIR      57  45  62 CALM      29.89S
TEMECULA         N/A     58  51  77 CALM      29.92S

$$

SAN BERNARDINO AND RIVERSIDE COUNTY MOUNTAINS

CITY           SKY/WX    TMP DP  RH WIND       PRES   REMARKS
BIG BEAR AP    CLEAR     45  16  31 CALM      30.14S
ANGELUS OAKS     N/A     60  20  21 CALM      29.70R
PINE COVE        N/A     65   2   8 N3        29.77S

$$

SOUTHERN DESERT INCLUDING THE COACHELLA VALLEY

CITY           SKY/WX    TMP DP  RH WIND       PRES   REMARKS
PALM SPRINGS   CLEAR     74  40  29 CALM      29.69R
THOUSAND PALMS   N/A     85  29  13 NW18      29.62S
PALM DESERT      N/A     73  44  35 CALM      27.34S
THERMAL        CLEAR     83  25  12 NW7       29.63R
BLYTHE         CLEAR     78  28  16 S3        29.68R
IMPERIAL AP    CLEAR     75  58  55 SE6       29.67R
EL CENTRO NAS  CLEAR     76  59  55 SE8       29.69R
YUMA AZ        CLEAR     77  64  64 S3        29.70R

$$

UPPER DESERT

CITY           SKY/WX    TMP DP  RH WIND       PRES   REMARKS
VICTORVILLE AP CLEAR     66  21  18 SW13      29.88F
HESPERIA         N/A     65  29  26 SW7       29.85S
PALMDALE       CLEAR     70  42  36 SW9       29.88S
LANCASTER      CLEAR     71  48  43 W16       29.87S
EDWARDS AFB    CLEAR     70  50  49 SW16      29.82F
DAGGETT        CLEAR     81  35  19 SW23G30   29.76R
29 PALMS N     CLEAR     78  19  11 NW10      29.85S
NEEDLES        CLEAR     84  23  10 NW7       29.68R

$$

REGIONAL REPORTS

CITY           SKY/WX    TMP DP  RH WIND       PRES   REMARKS
SANTA BARBARA  CLEAR     57  56  96 NE3       29.83S
SANDBERG       CLEAR     64  50  60 N23       30.01F
LAS VEGAS NV   CLEAR     83  22  10 SW9       29.71R
PHOENIX AZ     PTCLDY    85  41  21 E6        29.76R
TIJUANA        FOG       61  61 100 CALM      29.90S VSB 1
ENSENADA NW      N/A     62  32  31 CALM      29.85R

$$

OFFSHORE ISLANDS

CITY           SKY/WX    TMP DP  RH WIND       PRES   REMARKS
CATALINA ARPT  NOT AVBL
SAN NICOLAS IS FOG       54  50  87 NW16G25   29.86S VSB 1/2

$$

MARINE AND OFFSHORE BUOY REPORTS

STATION/POSITION SKY/WX   TEMP    WIND        PRES    VSBY  SWELL
                          AIR SEA DIR/SP/G                  HT/PER/DIR
                          (F)     (DEG/KT/KT) (MB)    (MI)  (FT/S/D)
TANNER BANKS               59 63  320/ 17/ 23 1011.9R         3/190/13
S CLEMENTE BASIN              64  280/  8/ 12 1011.8R         5/290/ 6
SAN NICOLAS IS.               60                N/A           3/210/18
SO. S. ROSA ISLA           56 57  310/ 23/ 29 1011.1R         3/130/13
W. S. BARBARA CH           54 54  320/ 21/ 27 1011.0F         3/220/13
M. S. BARBARA CH           60 60   40/  6/  8 1010.9F         3/250/ 7
S. MONICA BASIN            61 65  360/ 14/ 17 1010.5R         2/120/13
S PEDRO CHANNEL               65                N/A           2/180/12
CMP PENDLETON NS              66                N/A           2/220/13
OCEANSIDE OFFSHR              68                N/A           2/210/18
TORREY PINES OTR              67                N/A           2/210/13
SAN DIEGO BAY                 71              1011.9R
POINT LOMA SOUTH              66                N/A           2/200/18

$$





USA.gov is the U.S. government's official web portal to all federal, state and local government web resources and services.